SCP
2 2 1 1 1 0 0 0 0 0 0 0 0 0 0 0 0 0 0 0 0 1 1 1 1 1 1 1 1 1 1 1 1 1 1 1 1 1 1 1 1 1 1 1 1 1 1 1 1
2 1 1 1 1 0 0 0 0 0 0 0 0 0 0 0 0 0 0 0 0 1 1 1 1 1 1 1 1 1 1 1 1 1 1 1 1 1 1 1 1 1 1 1 1 1 1 1 1
1 1 1 1 1 1 0 0 0 0 0 0 0 0 0 0 0 0 0 0 0 1 1 1 2 1 1 1 1 1 1 1 1 1 1 1 1 1 1 1 1 1 1 1 1 1 1 1 1
1 1 1 1 1 1 0 0 0 0 0 0 0 0 0 0 0 0 0 0 1 1 1 2 2 2 1 1 1 1 1 1 1 1 1 1 1 1 1 1 1 1 0 0 1 1 1 1 1
1 1 1 1 1 1 0 0 0 0 0 0 0 0 0 0 0 0 0 0 1 1 1 2 3 3 2 1 1 1 1 1 1 1 1 1 1 1 1 1 1 1 0 0 1 1 1 1 1
1 1 1 1 1 0 0 0 0 0 0 0 0 0 0 0 0 0 0 0 0 1 1 2 4 3 2 1 1 1 1 1 1 1 1 1 1 1 1 1 1 0 0 0 1 1 1 1 1
1 1 1 1 0 0 0 0 0 0 0 0 0 0 0 0 0 0 0 0 0 1 1 3 3 3 2 1 1 1 1 1 1 1 1 1 1 1 0 0 0 0 0 0 1 1 1 1 1
0 0 0 0 0 0 0 1 0 0 0 0 0 0 0 0 1 1 1 1 1 1 1 2 2 2 2 1 1 1 1 1 1 1 1 1 1 1 0 0 0 0 0 0 1 1 1 1 1
0 0 0 0 0 0 1 1 0 0 0 0 0 0 1 1 1 1 1 1 1 1 1 1 1 1 1 1 1 1 1 1 1 1 1 1 1 0 0 0 0 0 0 0 1 1 1 1 1
1 1 0 0 0 0 0 0 0 0 0 0 1 1 1 1 1 1 1 1 1 1 0 0 0 1 1 1 1 1 1 1 1 1 1 0 0 0 0 0 0 0 0 0 1 1 1 1 1
0 1 0 0 0 0 0 0 0 0 0 0 1 1 1 1 1 1 1 1 1 1 0 0 0 0 1 0 0 1 1 1 1 1 1 0 0 0 0 0 0 0 0 0 0 0 1 1 1
1 1 1 1 1 0 0 0 0 0 0 0 1 1 1 1 1 1 1 1 1 1 0 0 0 0 1 0 0 0 1 1 1 1 1 0 0 0 0 0 0 0 0 0 0 0 1 1 1
1 1 1 1 1 1 1 0 0 0 1 1 1 1 1 2 2 1 1 2 1 1 0 0 1 1 0 0 0 0 0 0 0 0 0 0 0 0 0 0 0 0 0 0 0 0 0 1 1
1 1 1 1 1 1 1 1 0 1 1 1 2 2 2 2 2 2 2 2 1 1 0 1 1 1 0 0 0 0 0 0 0 0 0 0 0 0 0 0 1 0 0 0 0 0 0 0 1
1 1 1 1 1 1 1 1 1 1 1 2 2 2 2 2 2 2 2 1 1 1 1 1 1 1 0 0 0 0 0 0 0 0 0 0 0 0 0 1 1 1 1 1 1 1 1 1 0
1 1 1 1 1 1 1 1 1 1 1 2 2 2 2 2 2 2 2 1 1 1 1 1 1 1 0 0 0 0 0 0 0 0 0 0 0 0 0 0 1 1 1 1 1 1 1 1 1
0 0 1 1 1 1 1 1 1 1 1 1 2 2 2 2 2 2 2 1 1 1 1 1 1 1 0 0 0 0 0 0 0 0 0 0 0 0 0 0 0 0 1 1 1 1 1 1 1
0 1 1 1 1 1 1 1 1 2 1 1 2 2 2 2 2 2 1 1 1 1 1 1 1 0 0 0 0 0 0 0 0 0 0 0 0 0 0 0 0 0 1 1 1 1 1 1 1
1 1 1 1 1 0 0 1 1 1 1 2 2 2 2 1 1 1 1 1 1 1 1 1 1 0 0 0 0 0 0 0 0 0 0 0 0 0 0 0 0 0 1 1 1 1 1 1 1
0 0 0 0 0 0 0 0 1 1 1 1 2 2 2 1 1 1 1 1 1 2 2 1 1 0 0 0 0 0 0 0 0 0 0 0 0 0 0 0 0 0 1 1 1 1 1 1 1
0 0 0 0 0 0 0 0 0 1 1 1 2 2 2 1 1 1 1 1 2 2 2 1 1 0 0 1 1 1 0 0 0 0 0 0 0 0 0 0 0 1 1 1 1 1 1 1 1
0 0 0 0 0 0 0 0 0 1 1 1 2 2 2 1 1 2 2 2 2 2 2 1 1 1 1 1 1 1 1 0 0 0 0 0 0 0 0 1 1 1 1 1 1 1 1 1 1
0 0 0 0 0 0 0 0 0 0 1 1 1 2 2 2 2 2 2 2 1 1 1 1 1 1 1 1 1 1 1 0 0 0 0 0 0 0 0 1 1 1 1 1 1 1 1 1 1
0 0 0 0 0 0 0 0 0 0 0 1 1 2 2 2 3 3 2 2 2 1 1 1 1 1 1 1 1 1 1 0 0 0 0 0 0 0 0 1 1 1 1 1 1 1 1 1 1
0 0 0 0 0 0 0 0 0 0 0 1 1 1 2 2 3 2 2 2 2 1 1 1 1 1 1 1 1 1 1 0 0 0 0 0 0 0 1 1 1 2 2 2 2 2 1 1 1
0 0 0 0 0 0 0 1 0 0 0 1 1 1 2 2 2 2 2 2 2 1 1 1 1 1 1 1 1 1 1 1 1 1 1 1 1 1 1 1 2 2 3 2 2 2 2 1 1
0 0 0 0 0 0 1 1 0 0 0 1 1 1 2 2 2 2 2 2 2 2 1 1 1 1 1 1 1 1 1 1 1 1 1 1 1 1 1 1 2 3 3 2 2 2 2 1 1
0 0 0 0 0 0 0 0 0 0 0 1 1 1 2 2 2 2 2 2 2 2 2 2 2 2 2 1 1 1 1 1 1 1 1 1 1 1 1 2 2 2 2 2 2 2 2 1 1
0 0 0 0 0 0 0 0 0 0 0 0 1 1 2 2 2 2 2 2 2 3 3 3 3 2 1 1 1 1 1 1 1 1 1 1 1 1 1 1 2 2 1 1 1 1 1 1 1
0 0 0 0 0 0 0 0 0 0 0 0 1 1 2 2 2 2 2 2 3 3 3 3 3 2 1 1 1 1 1 1 1 1 1 1 1 1 1 1 1 1 1 1 1 1 1 1 1
Wind_Speed
6 5 3 1 2 4 2 2 1 2 3 2 4 5 5 4 2 2 0 3 3 3 3 5 8 9 10 10 10 11 11 11 11 10 10 10 10 10 10 9 9 9 9 9 9 10 10 9 9
5 4 1 1 4 3 2 2 2 3 4 3 5 5 5 4 3 4 2 2 4 4 3 5 8 9 10 10 10 10 11 10 10 10 9 10 10 9 9 8 9 8 8 9 9 9 8 8 8
5 3 1 3 3 2 1 0 3 4 4 3 4 4 4 3 3 2 2 4 4 4 3 5 9 9 9 9 9 9 9 9 10 9 9 9 9 8 8 8 8 7 8 8 8 8 7 7 8
3 1 2 4 2 1 2 2 4 4 4 5 4 5 3 2 2 3 5 6 5 3 3 4 9 9 9 8 8 8 8 8 8 8 8 8 8 7 7 7 7 6 6 7 7 7 7 7 7
1 2 4 3 2 1 0 2 3 3 3 4 4 4 3 3 5 7 6 6 5 3 3 3 8 8 8 8 8 8 8 8 8 8 7 7 7 6 6 6 6 5 5 5 5 6 6 6 5
2 3 4 2 3 2 1 2 3 4 4 4 4 4 2 2 5 5 5 5 4 4 3 2 6 8 8 7 7 7 8 7 7 7 7 6 6 6 5 5 5 4 4 4 4 5 5 5 4
2 3 2 0 1 2 1 1 2 3 4 3 3 4 2 2 3 5 5 5 4 3 3 2 2 4 6 7 7 7 7 7 6 6 6 5 5 5 4 4 4 3 3 3 2 2 3 4 4
3 3 2 0 1 0 1 2 2 3 3 3 4 5 3 4 5 6 5 5 4 3 2 2 2 2 2 2 5 6 6 6 5 4 4 4 3 3 3 3 2 2 1 1 1 1 2 2 2
2 4 0 2 2 1 2 2 2 3 5 3 2 3 5 10 9 7 5 3 2 2 2 2 2 2 2 1 3 4 4 4 3 2 3 2 1 1 1 1 1 1 0 0 0 0 1 1 1
3 2 3 3 3 3 2 3 3 4 3 2 4 6 10 10 9 8 6 4 3 2 1 1 2 2 1 1 2 2 1 2 2 2 2 2 2 1 1 1 0 1 2 2 1 0 0 1 1
3 3 2 1 2 3 3 2 3 6 2 3 6 9 11 9 7 7 5 4 3 2 2 2 2 2 2 1 1 1 1 1 2 2 2 2 2 2 2 1 2 2 3 2 2 2 1 1 0
2 2 2 2 2 2 3 3 4 3 2 4 8 11 11 9 8 7 6 4 3 3 2 2 2 2 1 1 1 1 1 1 1 1 2 2 1 1 1 1 1 1 1 1 1 1 1 1 0
1 0 1 1 2 3 4 4 4 2 4 7 9 10 9 9 7 4 4 4 3 3 3 2 2 2 2 1 1 1 1 1 1 1 1 2 1 0 1 1 1 1 1 1 1 1 0 0 0
2 2 2 2 2 2 5 3 4 2 6 8 9 7 7 7 6 4 3 3 3 4 3 2 2 2 2 2 1 1 1 1 1 1 0 1 1 1 0 0 1 1 0 0 0 0 0 0 0
3 3 3 2 1 1 5 4 1 3 7 7 7 6 5 5 4 4 5 4 4 3 3 3 3 2 2 2 2 1 1 1 1 0 0 0 0 1 0 0 0 1 0 0 0 0 0 0 0
3 3 1 2 0 2 5 1 1 5 7 6 5 5 4 4 4 4 4 4 3 3 2 2 3 3 3 2 1 1 1 1 1 0 0 0 0 0 1 0 1 0 0 0 0 0 0 0 0
3 1 1 2 0 2 3 2 2 4 6 5 4 4 4 3 3 3 4 4 4 4 3 2 2 3 3 2 1 1 1 1 1 1 0 0 0 1 1 0 1 0 1 0 0 0 0 0 0
3 2 1 2 1 2 2 2 2 5 6 5 4 3 3 4 5 4 4 5 4 4 4 3 3 3 2 2 1 1 1 0 0 0 0 0 0 0 1 0 0 0 0 0 0 1 1 1 1
3 2 1 3 1 2 2 2 3 5 4 4 4 4 4 5 3 3 4 4 4 4 4 4 3 3 3 2 1 1 1 0 0 1 1 1 1 0 1 0 0 0 1 1 1 1 1 0 0
3 2 1 2 1 2 1 1 2 5 7 6 6 6 6 4 2 3 4 4 4 4 4 3 3 3 3 2 2 2 1 1 1 1 1 1 1 1 1 1 1 0 0 0 1 1 1 0 1
2 4 4 3 2 3 2 4 2 2 4 4 4 5 6 6 6 5 5 5 5 5 5 4 4 3 3 2 2 1 1 1 1 1 1 1 1 1 1 1 1 1 1 1 2 2 2 2 1
4 5 5 4 3 1 2 2 5 2 2 4 5 5 6 6 5 5 6 5 5 5 4 4 4 3 3 3 3 3 2 2 2 1 1 1 1 2 1 1 1 1 1 2 2 2 2 2 2
4 2 4 3 3 2 2 1 7 2 3 6 6 6 5 6 6 6 7 6 5 5 4 3 3 3 2 3 4 3 2 2 1 1 1 1 1 2 1 1 1 1 1 2 2 1 2 2 2
5 7 6 6 5 1 2 3 6 3 5 4 4 5 5 5 5 5 5 4 4 4 3 3 3 3 3 3 4 4 4 3 2 2 1 1 1 1 2 1 1 1 1 2 2 2 2 2 3
5 7 4 4 3 4 2 2 7 6 5 4 4 4 5 4 4 5 5 5 5 5 4 4 4 4 3 4 4 4 4 4 4 3 3 2 2 2 2 2 1 2 2 2 2 2 2 2 3
3 8 7 5 4 4 1 4 7 4 3 2 1 2 2 3 4 4 5 5 5 5 4 4 4 4 3 4 4 3 4 3 3 3 3 3 3 3 2 2 1 2 2 1 1 1 2 1 2
5 3 5 7 2 0 4 5 7 2 2 2 0 2 3 3 3 4 4 4 4 4 4 4 4 4 4 4 3 3 3 3 3 3 2 2 2 2 2 1 1 1 1 1 1 1 2 1 2
4 7 5 6 5 3 4 4 5 4 4 3 1 2 2 3 3 3 4 4 4 4 3 3 3 4 3 3 4 3 3 3 3 2 2 2 2 2 1 1 1 1 2 1 1 1 1 1 2
3 4 5 4 4 6 3 7 5 5 4 4 3 3 3 4 4 4 4 4 3 2 3 3 2 2 2 3 3 2 2 2 2 2 2 2 2 2 2 2 2 1 1 1 1 2 2 2 2
3 4 6 5 3 3 4 8 3 2 2 2 3 2 2 3 3 3 3 3 3 3 2 3 2 2 2 2 2 2 1 1 1 1 1 1 1 1 1 1 1 1 1 1 1 2 2 2 2
Wind_Direction
168 150 149 146 53 47 6 327 16 70 61 45 74 86 97 88 112 134 311 115 116 120 130 137 131 128 127 128 127 127 125 124 126 125 127 128 130 130 128 133 137 137 137 140 142 141 141 141 140
152 159 175 63 70 50 332 323 56 73 125 126 76 72 75 65 65 100 112 124 120 123 123 135 132 128 126 126 126 126 126 125 125 124 127 128 130 131 131 133 138 138 143 144 144 143 145 145 145
169 191 103 67 73 143 232 351 106 102 97 81 75 59 73 89 102 128 156 131 110 109 118 140 136 133 131 128 126 125 125 126 125 126 128 127 128 131 132 135 138 139 144 147 146 149 148 150 152
171 137 55 60 37 274 197 169 135 119 69 54 85 70 59 59 121 134 128 123 112 105 115 143 140 138 136 134 131 128 129 130 129 127 126 125 126 129 128 131 136 137 141 147 152 158 158 156 157
112 73 53 35 352 327 118 153 126 104 84 69 84 89 54 30 94 112 121 122 118 110 107 135 142 144 141 135 130 126 128 131 131 126 123 125 124 125 125 125 126 129 135 147 161 165 163 160 157
64 62 66 18 344 0 69 98 93 87 92 90 87 92 61 77 106 116 117 118 114 113 100 109 144 147 143 137 132 128 128 130 133 129 127 127 125 124 123 122 125 133 139 140 156 160 161 160 158
90 76 93 112 344 6 111 98 104 112 104 99 108 96 81 110 117 114 109 104 103 111 108 91 104 138 138 136 136 134 132 129 130 132 134 133 127 126 128 122 124 130 132 129 125 139 166 164 158
123 90 49 40 130 258 144 101 103 111 107 106 104 128 164 167 125 103 91 85 87 95 95 94 90 103 112 127 139 138 135 135 134 139 140 138 129 127 135 125 125 125 130 145 138 140 152 161 158
104 72 119 213 178 201 142 113 106 86 105 101 100 135 144 133 121 107 94 81 99 122 89 84 89 97 109 128 140 130 132 126 121 125 129 111 58 50 103 128 147 169 164 224 182 146 130 125 125
93 116 228 207 179 162 138 130 132 104 95 80 80 89 116 129 134 137 143 153 155 150 134 104 120 119 112 125 90 76 87 80 74 53 57 58 53 28 47 20 339 330 342 346 345 315 59 42 44
140 193 239 223 178 146 136 126 113 130 144 181 153 139 137 140 144 152 162 166 166 153 152 152 153 137 130 114 106 84 75 77 76 66 65 62 50 26 23 21 1 354 357 9 16 35 46 44 39
150 252 205 193 147 142 142 127 101 120 183 144 143 144 144 151 160 169 171 171 151 138 163 146 148 142 145 140 130 115 106 97 103 95 91 84 61 29 19 19 10 11 11 16 17 40 43 20 339
147 319 42 100 101 129 114 105 106 77 93 109 124 137 150 158 165 167 158 158 150 162 180 169 155 149 146 142 159 128 131 143 141 109 100 114 111 36 1 6 16 1 16 21 13 17 33 353 291
130 97 43 54 71 104 111 85 93 120 116 120 131 146 163 166 163 148 144 154 171 178 181 165 153 156 145 144 150 142 144 145 131 119 111 130 158 174 175 348 354 349 340 287 71 16 16 347 312
93 67 28 17 25 112 105 57 84 145 127 130 141 151 158 165 162 168 178 175 176 176 164 156 160 139 140 145 154 145 147 134 124 121 94 143 198 184 173 138 334 309 302 34 67 42 30 358 35
48 60 33 304 119 112 111 168 207 139 135 141 152 158 160 171 174 176 174 170 174 162 157 171 169 144 146 150 157 140 142 137 154 146 99 310 266 173 141 146 278 269 103 90 116 70 31 0 13
36 71 266 294 257 116 124 194 182 149 148 157 167 174 170 170 179 179 176 176 174 171 165 168 165 152 160 157 152 139 131 139 160 122 129 298 276 204 168 200 271 201 97 96 240 101 160 190 249
221 205 229 249 265 102 133 198 166 165 162 169 173 178 180 191 203 192 180 174 171 168 163 167 168 160 155 143 125 105 92 95 101 127 197 202 238 212 169 200 302 106 114 189 190 171 173 191 207
170 160 230 267 201 114 184 208 194 172 173 177 183 189 203 216 207 189 180 174 169 167 167 172 170 165 149 145 154 152 187 196 210 239 234 235 252 234 175 240 52 132 180 223 207 159 143 159 159
147 150 239 309 45 136 168 244 206 183 196 194 193 197 206 210 191 186 180 175 173 178 184 176 180 179 174 175 169 164 162 184 193 246 274 256 244 247 219 201 213 179 171 279 235 165 148 173 150
210 186 194 191 24 42 61 335 275 236 209 202 198 200 203 200 197 194 188 188 182 187 189 186 183 182 181 164 130 102 70 36 3 299 282 271 252 243 240 214 201 205 188 215 228 193 180 194 219
235 218 172 154 111 317 92 286 293 263 235 223 225 214 213 210 199 195 194 193 193 196 187 181 173 173 176 156 150 160 173 199 224 224 247 282 265 256 242 228 219 223 212 221 235 213 195 182 217
202 131 116 115 118 52 28 142 288 332 267 249 236 226 220 212 203 198 198 195 190 183 177 180 166 173 180 175 175 178 194 207 213 207 248 274 286 279 267 236 228 241 238 237 242 227 206 201 211
125 73 56 48 67 11 252 169 277 252 237 257 239 219 216 210 203 197 193 176 172 169 166 167 168 193 195 189 189 189 194 197 198 220 233 261 278 283 277 253 246 251 250 247 243 234 221 228 227
91 93 45 4 10 252 249 182 250 255 233 226 236 223 206 199 190 184 177 175 178 179 180 180 178 199 203 199 204 203 202 197 203 215 221 232 254 262 268 263 253 253 251 247 241 239 241 237 227
163 138 154 190 217 267 295 233 253 267 265 261 240 185 164 177 183 181 182 179 185 187 186 189 189 200 204 207 214 210 201 202 213 217 217 222 233 243 251 244 244 252 255 260 244 246 257 249 235
137 149 155 130 132 259 276 282 296 293 310 321 58 116 159 173 178 180 176 174 179 185 190 192 191 198 205 209 212 210 205 205 213 219 215 227 239 243 239 237 247 262 267 264 242 256 274 263 245
121 139 99 114 146 233 278 269 255 258 260 269 256 202 187 173 179 179 179 181 183 187 184 176 177 195 206 208 213 217 213 210 207 202 215 229 240 246 234 246 254 263 267 264 246 256 257 241 250
86 85 98 109 150 161 233 265 231 219 222 224 237 228 199 188 188 188 186 183 177 170 173 181 181 189 205 209 207 212 210 207 205 215 227 234 241 231 228 241 251 257 261 259 251 258 244 241 258
140 148 144 151 206 176 183 260 290 206 226 217 242 242 218 202 193 182 172 165 168 178 182 189 185 190 210 207 186 200 201 195 210 229 236 234 248 250 233 224 237 254 261 255 243 256 260 242 254